Location: Chicoutimi
(48.4330°N, 71.0670°W)
Time: 03:07:41
(UTC-04:00)

ISS - Visible Passes

Search period start: 26 July 2014 00:00
Search period end: 05 August 2014 00:00
Orbit: 411 x 420 km, 51.6° (Epoch: 26 July)

Date Brightness Start Highest point End Pass type
(mag) Time Alt. Az. Time Alt. Az. Time Alt. Az.
26 Jul -1.2 01:27:13 20° E 01:27:13 20° E 01:28:30 10° ENE visible
26 Jul -2.8 03:00:04 23° W 03:02:00 61° NNW 03:05:20 10° ENE visible
27 Jul -3.2 02:12:54 71° WNW 02:13:09 77° NNW 02:16:32 10° ENE visible
27 Jul -2.2 03:46:52 10° WNW 03:50:08 46° N 03:53:25 10° ENE visible
28 Jul -1.9 01:25:44 33° ENE 01:25:44 33° ENE 01:27:44 10° ENE visible
28 Jul -2.3 02:58:35 14° WNW 03:01:15 47° N 03:04:32 10° ENE visible
28 Jul -2.7 04:34:55 10° WNW 04:38:17 64° NNE 04:41:38 10° E visible
29 Jul -0.6 00:38:33 12° ENE 00:38:33 12° ENE 00:38:55 10° ENE visible
29 Jul -2.5 02:11:25 37° WNW 02:12:23 53° N 02:15:42 10° ENE visible
29 Jul -2.4 03:46:07 10° WNW 03:49:26 53° N 03:52:45 10° E visible
30 Jul -2.4 01:24:16 47° NE 01:24:16 47° NE 01:26:53 10° ENE visible
30 Jul -2.3 02:57:17 10° WNW 03:00:33 47° N 03:03:50 10° E visible
30 Jul -3.3 04:34:04 10° WNW 04:37:27 77° SSW 04:40:49 10° ESE visible
31 Jul -0.9 00:37:09 18° ENE 00:37:09 18° ENE 00:38:05 10° ENE visible
31 Jul -2.2 02:10:01 24° WNW 02:11:40 46° N 02:14:57 10° ENE visible
31 Jul -3.1 03:45:16 10° WNW 03:48:39 78° NNE 03:52:01 10° ESE visible
01 Aug -2.3 01:23:02 47° N 01:23:02 47° N 01:26:05 10° ENE visible
01 Aug -2.8 02:56:29 10° WNW 02:59:49 61° NNE 03:03:10 10° E visible
01 Aug -2.7 04:33:19 10° WNW 04:36:28 38° SSW 04:39:37 10° SE visible
02 Aug -0.8 00:36:19 17° ENE 00:36:19 17° ENE 00:37:15 10° ENE visible
02 Aug -2.4 02:09:14 24° WNW 02:10:58 51° N 02:14:16 10° E visible
02 Aug -3.2 03:44:26 10° WNW 03:47:46 57° SSW 03:51:04 10° SE visible
02 Aug -2.6 22:05:28 10° SSW 22:08:19 32° SSE 22:08:19 32° SSE visible
03 Aug -1.5 01:23:32 28° ENE 01:23:32 28° ENE 01:25:22 10° E visible
03 Aug -3.4 02:56:33 17° WNW 02:59:00 82° SSW 03:02:22 10° ESE visible
03 Aug -1.7 04:32:58 10° W 04:35:20 18° SW 04:37:41 10° S visible
03 Aug -2.0 21:17:14 10° SSW 21:19:51 22° SE 21:22:29 10° E visible
03 Aug -3.3 22:52:55 10° WSW 22:56:16 86° NNW 22:57:24 39° ENE visible
04 Aug -0.5 00:29:57 10° WNW 00:30:23 13° WNW 00:30:23 13° WNW visible
04 Aug -0.6 02:13:12 13° ESE 02:13:12 13° ESE 02:13:34 10° ESE visible
04 Aug -2.3 03:46:24 27° SW 03:46:43 27° SW 03:49:37 10° SSE visible
04 Aug -3.4 22:04:10 10° WSW 22:07:29 68° SSE 22:10:50 10° ENE visible
04 Aug -2.3 23:41:04 10° W 23:44:16 49° NNW 23:44:16 49° NNW visible
